Location: Cardiff
(53.7833°N, 113.6000°W)
Time: 14:07:04
(UTC+00:00)

RS-15 - Pass Details

Date: 04 December 2023
Orbit: 1893 x 2151 km, 64.8° (Epoch: 20 February)

Event Time Altitude Azimuth Distance (km) Brightness Sun altitude
Rises 04:51:29 0° 215° (SW) 5,652 10.5 -47.3°
Reaches altitude 10° 04:54:56 10° 215° (SW) 4,637 10.0 -47.7°
Enters shadow 04:57:05 18° 214° (SW) 4,019 9.6 -48.0°
Exits shadow 05:20:47 - 46° (NE) 5,069 10.2 -50.7°
Sets 05:22:01 0° 46° (NE) 5,438 10.3 -50.9°
